TimeEST,TemperatureF,Dew PointF,Humidity,Sea Level PressureIn,VisibilityMPH,Wind Direction,Wind SpeedMPH,Gust SpeedMPH,PrecipitationIn,Events,Conditions,WindDirDegrees,DateUTC
12:54 AM,21.9,1.9,42,30.10,10.0,WNW,9.2,-,N/A,,Clear,300,2013-02-02 05:54:00
1:54 AM,21.0,3.9,48,30.13,10.0,WNW,6.9,-,N/A,,Clear,300,2013-02-02 06:54:00
2:54 AM,19.9,3.9,50,30.14,10.0,WNW,8.1,-,N/A,,Scattered Clouds,300,2013-02-02 07:54:00
3:54 AM,19.9,3.9,50,30.16,10.0,WNW,5.8,-,N/A,,Clear,290,2013-02-02 08:54:00
4:54 AM,19.0,3.9,52,30.18,10.0,West,8.1,-,N/A,,Clear,270,2013-02-02 09:54:00
5:54 AM,18.0,1.9,50,30.20,10.0,West,5.8,-,N/A,,Clear,280,2013-02-02 10:54:00
6:54 AM,18.0,1.0,48,30.22,10.0,WNW,5.8,-,N/A,,Clear,300,2013-02-02 11:54:00
7:54 AM,19.0,1.9,47,30.25,10.0,West,3.5,-,N/A,,Clear,280,2013-02-02 12:54:00
8:54 AM,19.9,1.0,44,30.25,10.0,West,6.9,-,N/A,,Clear,270,2013-02-02 13:54:00
9:54 AM,24.1,1.9,38,30.25,10.0,WSW,8.1,-,N/A,,Clear,240,2013-02-02 14:54:00
10:54 AM,25.0,1.0,36,30.23,10.0,SW,8.1,-,N/A,,Clear,220,2013-02-02 15:54:00
11:54 AM,26.1,1.9,35,30.19,10.0,West,5.8,-,N/A,,Clear,280,2013-02-02 16:54:00
12:54 PM,28.9,1.9,32,30.16,10.0,WSW,6.9,16.1,N/A,,Clear,250,2013-02-02 17:54:00
1:54 PM,28.9,3.0,33,30.13,10.0,SW,10.4,16.1,N/A,,Mostly Cloudy,220,2013-02-02 18:54:00
2:54 PM,28.9,3.9,35,30.11,10.0,SW,10.4,-,N/A,,Overcast,230,2013-02-02 19:54:00
3:54 PM,28.9,5.0,36,30.09,10.0,South,3.5,-,N/A,,Overcast,190,2013-02-02 20:54:00
4:54 PM,28.9,5.0,36,30.08,10.0,SSW,5.8,-,N/A,,Overcast,210,2013-02-02 21:54:00
5:54 PM,28.9,5.0,36,30.08,10.0,SSW,5.8,-,N/A,,Overcast,200,2013-02-02 22:54:00
6:54 PM,28.9,3.9,35,30.07,10.0,SSW,8.1,-,N/A,,Scattered Clouds,210,2013-02-02 23:54:00
7:54 PM,28.9,5.0,36,30.07,10.0,SSW,9.2,-,N/A,,Clear,210,2013-02-03 00:54:00
8:54 PM,28.0,7.0,41,30.07,10.0,SW,6.9,-,N/A,,Overcast,220,2013-02-03 01:54:00
9:54 PM,28.0,8.1,43,30.06,10.0,SSW,6.9,-,N/A,,Overcast,210,2013-02-03 02:54:00
10:54 PM,28.0,8.1,43,30.06,10.0,SW,6.9,-,N/A,,Overcast,220,2013-02-03 03:54:00
11:54 PM,27.0,10.0,49,30.06,10.0,West,6.9,-,N/A,,Overcast,270,2013-02-03 04:54:00